Regional Weather Roundup
Issued by NWS

Home | Current Version | Previous Version | Text Only | Print | Product List | Glossary Off
Versions: 1 2 3 4 5 6 7 8 9 10 11 12 13 14 15 16 17 18 19 20 21 22 23 24 25 26 27 28 29 30 31 32 33 34 35 36 37 38 39 40 41 42 43 44 45 46 47 48 49 50

000
ASUS43 KFSD 280702
RWRSD

WEATHER ROUNDUP FOR SOUTH DAKOTA
NATIONAL WEATHER SERVICE SIOUX FALLS SD
200 AM CDT THU MAY 28 2015

NOTE: "FAIR" INDICATES FEW OR NO CLOUDS BELOW 12,000 FEET WITH NO
SIGNIFICANT WEATHER AND/OR OBSTRUCTIONS TO VISIBILITY.


SDZ001>005-009-010-012>017-280800-
NORTHWEST AND NORTH CENTRAL SOUTH DAKOTA

CITY           SKY/WX    TMP DP  RH WIND       PRES   REMARKS
BUFFALO          N/A     52  51  97 NW6       29.86F
FAITH            N/A     55  53  93 S13       29.90F
MOBRIDGE       MOCLDY    62  59  90 SE9       29.89F
$$

SDZ012>016-024>037-041>051-057-063-072>074-280800-
SOUTHWEST AND SOUTH CENTRAL SOUTH DAKOTA

CITY           SKY/WX    TMP DP  RH WIND       PRES   REMARKS
RAPID CTY ARPT PTCLDY    53  52  96 SE3       29.93F
PIERRE         CLOUDY    62  58  86 S6        29.92F
CUSTER         MOCLDY    51  48  89 SW6       30.04F
ELLSWORTH AFB  PTCLDY    55  55 100 SW5       29.92F
PHILIP         CLEAR     58  55  90 CALM      29.91F
PINE RIDGE     MOCLDY    60  53  77 S22G32    29.97S
WINNER         FAIR      64  54  69 S9        29.96F
$$

SDZ004>011-016>023-039-040-280800-
NORTHEAST SOUTH DAKOTA

CITY           SKY/WX    TMP DP  RH WIND       PRES   REMARKS
ABERDEEN       LGT RAIN  63  58  83 NE3       29.98F
WATERTOWN      CLOUDY    68  52  56 SE5       30.00S
BROOKINGS      MOCLDY    66  50  55 S7        30.03S
$$

SDZ017-020-022-023-036>040-048>070-280800-
SOUTHEAST SOUTH DAKOTA

CITY           SKY/WX    TMP DP  RH WIND       PRES   REMARKS
SIOUX FALLS    MOCLDY    65  50  58 S10       30.03S
HURON            N/A    N/A N/A N/A MISG      29.96F
CHAMBERLAIN    CLOUDY    61  56  82 S3        29.97S
MITCHELL       MOCLDY    64  54  69 SE9       29.98F
YANKTON        MOCLDY    66  48  52 S8        30.01S
$$

ABBREVIATIONS USED IN REMARKS
   TC - TEMPERATURE IN CELSIUS
  WCI - WIND CHILL INDEX
   HX - HEAT INDEX
  VSB - VISIBILITY




USA.gov is the U.S. government's official web portal to all federal, state and local government web resources and services.